sat.trackr.live / text

‹ back to catalog

SEMI-1P

NORAD 66298 · 2025-248F

PAYLOAD ACTIVE UNKNOWN

§ Identity

Operator
Country
TURK
Launch date
2025-11-02
Launch site
AFETR
Launch vehicle
Mass (kg)
RCS (m²)

External: N2YO · Heavens-Above · Gunter

§ Orbital elements

Epoch: 2026-09-20T04:36:40.239360Z

Period
94.62 min
Inclination
45.4006°
Eccentricity
0.0011947
Mean motion
15.21846460 rev/d
Perigee alt
492.1 km
Apogee alt
508.5 km
Semi-major
6,878.4 km
B*
2.1648e-4
RAAN
329.5190°
Arg perigee
208.0565°
Mean anomaly
151.9679°
Rev number
4,900

§ Raw data

SEMI-1P1 66298U 25248F   26263.19213240  .00004731  00000+0  21648-3 0  99912 66298  45.4006 329.5190 0011947 208.0565 151.9679 15.21846460 49007

JSON: /api/v1/satellites/66298 · /tle

For live sub-satellite position, see the globe view (requires WebGL).

§ Visibility from observer

Set your observer location to see the next 7 days of passes ≥ 10°. The values pass through the URL so the page stays shareable.

No JS? Fill the form by hand. The geolocation button needs JavaScript.